LiveATC.Net - Listen to live air traffic control over the Internet!


ICAO: LFLP  IATA: NCY   Airport: Annecy-Meythet Airport
City: Annecy
Country: France   Continent: Europe
LFLP METAR Weather: LFLP 060000Z AUTO 04002KT 7000 FEW003 M02/M03 Q1028
LFLP Flight Activity (FlightAware)
LFLP Twr/App
Feed Status: DOWN
Last heard on: 2016-12-05 18:42:05 (0 days 6 hours 3 minutes ago)
LFLP Twr/App Audio Archives
FacilityFrequency
Annecy Tower118.200
Chambery Approach121.200
Chambery Info123.700
Chambery Tower118.300

NOTE: Frequencies subject to change

NOTICE

Unauthorized use prohibited. See LiveATC.net Terms of Service


Find LiveATC Audio Streams


Airport/ARTCC Code

Frequency
(e.g., 124.400, 128.75)
Site-wide search

Browse LiveATC Feeds
LiveATC Coverage Map
Top 50 LiveATC Feeds
Bad Weather Areas

LiveATC FAQ
Offer a LiveATC Feed
Contact LiveATC.net
Press Inquiries

LiveATC on iPhone
LiveATC on Android

Windows Phone
Windows 8/10

LiveATC Mobile
(Mobile browser)

ATC Audio Archives
Interesting Recordings

LiveATC Forums


Home Page
About LiveATC.net
Make a Donation
LiveATC Store

Terms of Use
Privacy Policy

Canadian Air Freqs

AIRMETs/SIGMETs

FAA Airport Status
Nat'l Airspace Status
Arrival Demand Charts


Server Software By:
Icecast.org
Liquidsoap